Miscellaneous Local Product
Issued by NWS Hastings, NE

Home | Current Version | Previous Version | Graphics & Text | Print | Product List | Glossary On
Versions: 1 2 3 4 5 6 7 8 9 10 11 12 13 14 15 16 17 18 19 20 21 22 23 24 25 26 27 28 29 30 31 32 33 34 35 36 37 38 39 40 41 42 43 44 45 46 47 48 49 50
000
AXUS43 KGID 282302
MISGRI

GID CWA HOURLY WEATHER ROUNDUP
NATIONAL WEATHER SERVICE HASTINGS NE
600 PM CDT TUE JUL 28 2015

NOTE: "FAIR" INDICATES FEW OR NO CLOUDS BELOW 12,000 FEET WITH NO
SIGNIFICANT WEATHER AND/OR OBSTRUCTIONS TO VISIBILITY.

...SOUTH CENTRAL NEBRASKA...

CITY           SKY/WX    TMP DP  RH WIND       PRES   REMARKS
GRAND ISLAND   MOSUNNY   82  55  39 N13       29.99R
HASTINGS       PTSUNNY   82  61  48 N13       29.99R
KEARNEY        SUNNY     82  54  36 N14       30.00S
ORD            MOSUNNY   83  52  34 N9        29.99S
YORK           MOSUNNY   77  64  65 N10G23    29.96S
AURORA         CLOUDY    76  63  64 N8        29.98S
LEXINGTON      SUNNY     84  53  34 N7        30.03R
HOLDREGE       SUNNY     81  54  39 N10       30.01S
HEBRON         SUNNY     82  70  66 N16G22    29.92R

...NEBRASKA PANHANDLE...

CITY           SKY/WX    TMP DP  RH WIND       PRES   REMARKS
CHADRON        SUNNY     81  30  15 NW14G23   30.07S
ALLIANCE       SUNNY     81  30  15 NW15G25   30.09S
SCOTTSBLUFF    SUNNY     83  27  13 CALM      30.10S
SIDNEY         SUNNY     82  31  15 NE8       30.14S

...WESTERN AND NORTH CENTRAL NEBRASKA...

CITY           SKY/WX    TMP DP  RH WIND       PRES   REMARKS
VALENTINE      SUNNY     83  37  19 W16G23    30.03R
AINSWORTH      SUNNY     83  42  24 W13       30.03S
ONEILL         MOSUNNY   80  54  40 NW9G16    30.01S
BROKEN BOW     SUNNY     85  52  32 N6        30.02S
IMPERIAL       SUNNY     84  41  21 N13       30.08R
NORTH PLATTE   SUNNY     83  45  26 N12       30.05R
MCCOOK         SUNNY     87  48  25 NE13      30.03R

...EASTERN NEBRASKA...

CITY           SKY/WX    TMP DP  RH WIND       PRES   REMARKS
NORFOLK        PTSUNNY   82  59  45 N12       29.96F
SO SIOUX CITY  CLOUDY    78  62  57 NW10      29.93S
TEKAMAH        CLOUDY    79  71  76 N12G20    29.91S
COLUMBUS       CLOUDY    77  61  57 N5        29.96S
ALBION         MOSUNNY   81  54  38 N13       29.99S
OMAHA EPPLEY   PTSUNNY   80  73  79 N20G25    29.89R
OFFUTT AFB     SUNNY     87  78  74 NW20      29.86R HX  98
MILLARD        MOSUNNY   82  73  76 NW16G24   29.89R
LINCOLN        MOSUNNY   82  70  66 N18       29.91S
NEBRASKA CITY  MOSUNNY   88  75  64 NW5       29.85F HX  97
BEATRICE       CLOUDY    84  76  77 N20G25    29.88R HX  94
FALLS CITY     SUNNY     94  77  57 S9        29.83F HX 108

...NORTHERN KANSAS...

CITY           SKY/WX    TMP DP  RH WIND       PRES   REMARKS
GOODLAND       SUNNY     84  42  22 NE13G21   30.08S
HILL CITY      SUNNY     86  54  33 N18G24    29.99S
NORTON         CLEAR     81  48  32 N13G18    30.00S
PHILLIPSBURG   SUNNY     88  54  31 N14G22    29.97S
SMITH CENTER   SUNNY     84  61  45 N21       29.94S
HAYS           SUNNY     88  63  42 N21       29.94S
RUSSELL        SUNNY     89  71  55 N16       29.90R HX  95
CONCORDIA      SUNNY     87  76  69 N20G26    29.87R HX  97
SALINA         MOSUNNY  101  69  35 S13G23    29.82S HX 107
TOPEKA         SUNNY     96  71  44 S16G23    29.84F HX 103



USA.gov is the U.S. government's official web portal to all federal, state and local government web resources and services.